Theta_e
307 307 310 310 309 308 308 307 306 306 306 305 305 304 305 305 306 307 307 308 309 309 311 311 313 315 304 291 291 300 314 313 306 302 298 297 292 290 288 290 292 291 295 298 301 300 295
310 309 308 307 306 305 305 304 305 304 304 304 304 304 304 305 305 306 307 308 309 310 312 312 312 314 294 285 296 301 300 302 301 298 297 297 293 293 290 290 290 292 294 296 297 295 293
307 306 305 304 303 303 303 303 304 304 304 304 304 304 304 305 305 306 308 309 310 310 312 312 312 308 295 289 295 297 298 296 299 298 295 298 296 292 291 288 291 291 288 290 290 293 292
305 304 303 303 303 303 304 304 304 304 303 303 303 303 304 304 305 306 308 310 311 312 313 313 314 300 287 296 294 296 296 294 297 300 298 298 298 293 290 291 288 285 284 282 289 291 291
304 303 302 302 302 302 303 303 303 303 304 303 303 303 304 304 305 306 308 310 312 311 311 314 301 291 286 299 291 293 295 292 294 296 296 298 295 289 288 284 281 282 279 281 285 289 287
302 301 301 302 302 302 302 302 303 303 303 303 303 303 303 303 305 306 308 309 308 308 310 307 300 287 290 287 291 293 294 296 293 291 291 290 287 283 282 281 276 278 277 280 280 283 282
301 301 301 301 301 301 302 302 303 303 303 303 303 303 303 304 305 306 301 295 290 288 292 287 289 289 289 292 293 291 294 293 292 288 283 285 281 279 281 282 282 279 279 278 280 284 281
303 303 303 304 302 302 303 303 303 302 302 303 303 303 303 304 304 304 296 290 292 294 286 292 293 293 295 294 289 290 294 287 286 281 283 281 279 284 285 284 283 281 279 279 283 284 280
303 302 302 302 303 302 302 302 302 302 302 302 302 302 302 303 301 294 292 291 296 296 288 289 293 293 291 294 290 289 291 287 284 281 282 279 281 286 284 281 281 280 279 279 280 281 280
300 301 301 301 301 301 302 302 301 302 302 302 302 302 302 301 292 289 292 295 296 296 274 279 287 289 289 289 285 291 292 286 283 280 281 280 285 283 282 281 282 278 283 282 281 278 273
304 302 301 302 300 301 301 302 301 301 301 302 302 302 301 298 288 287 291 294 297 289 263 279 285 293 290 286 285 285 290 286 280 280 280 279 280 281 281 282 284 280 281 281 280 276 275
302 302 302 302 302 300 301 302 301 302 302 301 301 301 299 292 287 289 291 294 292 271 263 278 285 284 284 284 284 285 285 287 285 280 280 280 282 283 282 283 284 283 282 281 279 276 264
301 300 301 301 301 302 301 301 302 301 301 301 301 299 294 292 285 290 292 286 270 264 275 273 281 283 282 282 282 281 280 279 277 273 274 278 279 282 284 281 284 281 278 272 270 262 266
299 300 299 300 300 300 301 301 301 301 301 301 300 296 291 292 292 289 288 276 262 259 263 280 283 282 279 280 281 280 278 276 278 276 273 272 272 279 282 282 280 281 279 272 266 264 267
299 300 299 299 298 299 299 299 300 300 300 300 297 285 286 290 290 290 282 264 263 268 280 280 281 271 272 279 280 279 276 276 278 279 273 271 274 279 281 283 282 278 275 282 276 266 266
300 301 299 298 299 299 300 300 300 300 300 299 283 282 282 288 288 286 275 269 272 282 280 281 273 272 270 272 276 277 276 278 278 281 280 277 271 278 279 281 282 280 281 273 273 269 262
299 300 299 298 299 299 299 299 300 299 299 297 282 277 284 287 287 278 264 267 280 283 281 278 278 274 276 276 277 274 277 277 279 280 282 279 277 276 277 276 276 276 273 275 278 275 266
300 299 300 299 298 298 300 299 300 299 299 290 280 269 284 284 272 260 264 277 280 279 279 279 279 278 276 274 270 276 277 277 279 280 275 280 279 272 275 278 279 279 277 279 273 270 272
300 299 300 300 299 298 299 299 299 299 297 284 273 275 283 281 263 262 269 276 277 278 277 276 276 278 276 269 265 272 275 280 280 278 277 279 275 269 271 275 277 276 277 279 277 277 273
300 300 299 299 299 298 298 298 299 299 297 284 274 268 272 274 274 271 265 268 273 279 277 278 278 278 273 266 272 264 273 277 279 277 281 282 276 273 269 271 273 274 277 278 275 272 272
299 300 298 299 298 297 298 298 298 299 297 286 275 269 270 264 267 272 274 273 273 269 276 278 275 275 272 261 263 263 268 273 275 278 276 274 263 271 271 273 274 275 275 277 276 276 274
299 299 299 298 297 298 298 298 298 298 297 286 275 273 273 265 271 273 273 269 272 272 273 273 272 275 273 264 269 263 264 266 270 271 270 272 261 269 266 272 274 271 273 276 279 278 277
298 298 298 298 298 298 297 298 298 298 296 287 286 284 276 277 273 272 272 272 273 276 276 277 275 270 273 274 275 275 275 275 272 268 266 266 262 258 258 270 270 266 273 277 279 279 277
298 298 298 297 298 297 297 297 297 297 296 290 288 285 278 273 275 274 276 276 275 275 273 276 276 273 277 279 279 277 275 275 273 272 274 264 262 263 260 260 253 271 277 276 279 282 282
298 298 296 297 297 296 296 296 296 297 297 290 290 285 280 274 276 276 276 275 276 277 275 276 277 279 279 277 273 266 259 260 262 271 271 272 267 256 255 252 266 270 272 275 276 277 283
297 297 296 297 295 295 296 297 297 297 297 291 289 291 284 277 275 279 277 277 273 273 274 275 279 280 280 275 270 263 260 254 256 261 271 272 271 266 256 255 252 272 275 279 278 272 278
297 296 296 295 295 296 297 296 297 298 298 294 291 291 286 279 281 280 276 276 278 276 273 269 270 272 278 271 266 261 259 262 257 255 257 257 264 264 265 263 263 274 275 281 273 272 279
296 295 296 295 296 296 296 297 297 297 297 294 290 291 287 282 282 282 282 279 278 277 273 271 273 271 268 266 263 261 258 263 261 265 264 261 260 262 266 264 261 276 274 272 278 281 281
295 296 295 296 295 296 296 297 297 297 297 297 289 291 293 286 283 286 285 286 285 283 279 278 275 268 272 268 266 265 260 258 258 257 272 261 266 265 269 268 276 278 276 279 281 279 279
Wind_Speed
10 10 12 15 17 17 18 19 18 18 19 19 20 20 22 22 23 23 23 23 22 21 19 17 14 12 3 2 8 2 5 6 4 3 5 4 4 5 4 4 3 5 5 4 10 7 5
14 16 16 16 16 17 17 16 16 18 19 20 20 21 22 23 23 24 24 23 21 20 18 14 11 3 1 3 1 3 5 4 3 3 3 5 5 5 4 4 7 4 6 16 8 6 4
14 12 13 13 13 14 15 16 17 18 18 20 21 22 23 25 27 26 24 22 21 19 17 12 7 3 2 11 3 2 3 1 2 3 2 3 2 2 1 3 3 4 8 8 5 6 8
12 12 11 11 13 13 15 16 18 19 19 21 22 23 25 27 28 27 25 23 22 17 11 8 4 3 6 3 1 0 1 1 0 3 2 2 4 2 2 4 4 3 2 3 3 9 6
11 10 10 12 12 12 13 15 17 18 21 22 23 24 26 28 28 26 25 23 10 5 2 9 4 3 7 4 2 2 1 1 1 0 2 1 3 3 2 1 5 3 5 5 7 8 4
8 8 9 11 13 13 15 15 17 19 20 22 24 25 27 29 27 26 24 12 7 6 5 1 2 1 3 3 2 0 1 3 3 2 2 2 4 1 1 4 7 4 4 4 6 1 2
8 8 9 11 12 13 13 16 18 19 20 22 24 27 28 27 25 23 11 5 8 7 8 1 3 4 4 5 3 2 1 3 2 5 3 2 2 10 9 4 4 1 3 4 3 3 3
7 8 10 11 11 14 14 15 17 19 22 23 25 27 28 25 18 17 6 7 5 4 9 5 5 5 6 3 4 3 1 3 2 4 3 3 7 8 2 5 6 5 4 7 7 4 4
12 12 13 11 13 14 17 16 17 19 21 23 24 27 27 26 9 6 5 7 5 5 4 7 4 3 2 6 5 4 6 2 3 4 5 6 5 3 6 3 4 4 6 6 10 5 4
8 10 11 12 14 15 15 15 18 19 20 22 24 26 26 24 7 5 3 10 6 3 5 4 2 1 1 1 1 1 3 1 1 4 5 6 5 4 3 5 7 6 8 10 9 0 5
10 10 11 11 14 16 16 14 17 19 20 22 24 25 25 13 2 4 7 11 8 2 6 4 2 2 1 1 1 1 1 2 3 2 4 7 2 3 4 7 8 9 1 3 3 4 2
10 11 13 11 11 12 15 16 18 18 20 22 23 24 22 5 3 3 9 8 1 10 8 4 4 5 4 0 1 2 1 1 1 3 4 7 1 4 7 2 4 2 2 4 5 2 2
11 11 13 14 15 12 12 15 17 18 19 21 23 25 7 1 4 10 6 3 8 7 5 8 5 6 5 3 3 1 1 1 3 3 3 4 6 4 3 3 1 2 1 3 5 5 8
8 9 11 13 13 15 16 16 16 18 19 21 24 16 6 2 6 6 3 8 5 3 5 5 5 6 3 7 2 2 2 3 4 2 1 2 8 6 3 4 6 8 6 6 7 4 6
10 8 11 11 12 15 13 14 14 16 19 20 17 5 3 5 8 3 6 5 8 5 4 8 6 6 6 4 4 4 2 2 3 6 5 2 6 0 0 1 2 4 4 3 4 3 2
8 9 8 10 10 12 13 13 14 15 16 18 3 4 4 10 7 5 7 1 1 4 5 5 1 3 4 6 7 6 2 8 9 7 4 5 5 1 2 1 2 4 1 3 3 3 6
8 10 8 12 10 11 11 14 14 14 12 12 5 5 4 12 4 7 4 3 2 2 5 3 3 5 3 5 5 4 5 4 9 9 9 6 3 3 1 5 7 2 2 1 4 5 5
9 9 10 9 11 12 11 12 13 12 9 8 2 4 5 6 6 1 3 2 6 3 2 3 2 2 2 4 3 4 4 4 7 8 7 5 4 5 10 4 3 3 6 7 5 5 4
8 10 11 10 9 12 12 9 11 11 7 3 2 3 5 4 4 2 4 3 3 4 4 5 4 2 2 1 3 2 4 1 6 9 6 7 4 5 8 5 4 5 5 6 2 3 12
13 10 10 10 10 12 12 9 10 9 5 5 3 4 6 5 0 6 2 3 3 1 3 2 3 1 2 3 1 5 4 4 4 6 5 4 4 6 4 1 5 7 11 7 5 6 11
11 8 11 11 11 12 11 9 10 10 5 5 2 4 4 4 5 3 2 5 3 3 3 2 2 5 6 2 4 5 3 4 7 7 1 2 5 4 7 12 13 17 18 17 14 23 11
10 11 10 10 11 12 9 9 9 9 6 3 4 3 1 3 2 4 6 5 9 8 6 6 8 12 6 7 10 10 5 2 5 4 3 2 5 6 11 12 10 16 20 19 23 16 21
11 11 11 11 12 10 10 9 8 9 5 1 2 0 4 6 4 5 7 9 10 7 8 13 11 3 9 18 13 12 9 6 7 6 3 3 2 4 8 6 13 17 14 19 18 16 13
11 12 11 12 11 10 11 9 9 9 5 3 2 2 3 10 8 9 9 14 16 18 17 11 5 8 8 4 1 2 3 9 10 12 13 6 4 2 8 3 6 14 9 11 19 24 19
12 10 11 12 10 11 11 12 13 13 14 4 4 3 3 8 8 11 15 16 15 17 19 15 20 19 4 1 2 3 6 8 7 13 14 17 5 3 3 6 18 23 17 6 14 24 10
12 11 13 11 10 12 13 15 14 16 18 6 5 5 4 8 17 16 15 15 13 13 13 13 10 4 6 5 4 7 7 6 6 9 3 10 14 8 1 5 8 2 2 6 7 13 17
11 12 12 12 13 14 14 15 17 19 19 10 5 12 7 9 15 11 12 11 7 6 4 1 3 1 4 5 6 4 5 6 3 6 6 1 3 12 14 10 9 12 24 12 5 8 18
11 14 12 14 13 13 16 17 17 19 19 13 7 7 9 13 21 14 15 13 4 5 6 3 2 1 2 5 5 5 4 8 4 5 6 7 4 4 4 9 12 15 11 12 11 11 13
12 13 13 14 12 15 14 15 17 18 18 16 9 4 9 13 12 14 23 20 18 19 6 6 4 7 5 3 3 3 3 0 4 5 5 4 8 5 6 6 14 5 6 19 15 12 15
Wind_Direction
39 37 44 41 32 22 14 6 6 355 355 352 350 342 341 335 331 328 323 318 314 309 307 305 311 321 354 336 257 322 75 85 80 107 154 158 149 158 186 206 205 235 248 245 237 252 252
56 42 33 26 15 14 9 1 359 2 360 356 354 348 340 336 332 328 320 314 308 306 304 298 296 315 99 265 349 120 110 90 116 139 181 161 197 209 243 228 172 232 232 245 252 243 249
33 25 18 23 17 13 13 11 3 359 358 354 350 346 343 338 334 328 321 316 309 301 297 293 279 154 138 239 13 76 132 154 177 160 177 226 213 170 220 281 265 263 267 283 231 205 231
30 20 16 19 21 20 15 6 1 355 356 352 349 347 345 338 334 328 323 318 311 297 282 279 232 102 243 282 296 10 164 359 162 204 236 265 215 260 211 310 323 261 215 228 217 167 238
26 17 11 19 16 9 16 4 358 355 352 353 351 348 344 340 334 330 328 324 341 31 151 131 81 121 280 310 1 323 119 7 87 246 272 295 140 202 302 116 339 257 249 241 314 197 160
25 16 3 16 5 4 5 5 356 355 352 353 350 348 346 341 337 334 331 323 20 32 49 27 83 23 324 322 316 265 175 122 87 93 20 58 47 109 15 135 223 216 233 247 241 282 116
8 4 358 355 351 358 359 354 359 357 350 353 351 350 347 345 340 346 351 17 15 353 34 324 283 267 262 301 293 351 28 112 101 65 154 338 108 220 220 234 240 67 229 266 272 282 234
357 352 350 341 348 350 348 359 353 354 355 350 353 351 347 346 345 5 24 61 35 305 315 260 240 254 255 274 315 294 138 146 138 184 133 38 240 236 232 218 244 255 261 269 279 257 199
16 358 353 349 354 352 353 349 358 350 353 351 352 351 348 344 352 37 65 77 305 316 270 295 232 242 254 139 210 271 143 144 169 180 194 182 220 39 178 198 220 243 228 252 248 326 253
360 352 346 352 354 352 346 0 352 350 350 349 350 352 352 345 45 323 63 339 324 247 51 275 273 273 195 182 201 332 202 148 221 219 187 232 271 214 159 223 181 267 210 237 250 250 238
0 340 348 343 347 353 344 351 351 346 350 347 349 350 354 28 294 33 303 321 310 93 23 279 331 304 318 221 356 350 221 79 241 213 124 245 224 202 214 224 161 228 169 193 208 194 335
5 353 355 343 334 349 342 351 341 346 348 346 345 346 349 17 11 259 306 303 63 43 258 335 317 351 355 335 312 24 37 338 221 262 220 245 273 210 208 151 179 120 89 65 44 70 330
358 355 352 349 355 340 344 342 350 351 348 346 340 339 357 357 321 321 316 37 36 128 321 318 339 357 334 293 304 167 129 223 202 52 304 307 228 195 164 147 93 133 132 3 331 354 231
356 345 347 347 343 345 347 357 356 348 347 346 338 347 328 336 319 326 33 50 97 237 252 327 319 314 280 10 342 30 57 297 239 93 3 212 321 175 183 207 194 175 159 165 201 245 291
331 331 345 347 344 341 347 343 346 346 344 344 344 339 16 321 332 339 70 63 203 207 308 329 321 40 321 351 13 2 197 255 292 191 185 216 268 279 99 359 97 230 192 176 58 83 26
315 330 340 336 335 338 336 347 350 350 354 345 10 342 303 324 333 49 69 212 119 352 343 349 311 102 340 311 2 21 313 12 338 3 339 287 313 0 357 58 43 163 220 82 19 235 262
319 323 320 333 327 317 328 334 339 345 3 349 36 17 279 331 37 46 120 232 19 342 14 340 326 326 342 355 326 305 294 49 352 329 329 349 180 279 65 203 191 128 285 13 136 158 206
295 311 314 316 323 333 317 329 341 344 9 38 18 16 318 356 54 30 84 348 328 351 330 323 329 353 337 21 317 278 320 60 352 5 7 339 292 264 221 237 203 179 207 177 169 233 230
299 312 318 307 309 324 333 329 335 334 60 101 72 294 324 49 99 2 312 320 352 353 346 352 326 18 86 231 342 247 355 0 15 32 26 345 313 313 334 4 3 227 204 212 135 117 227
307 288 305 318 318 320 317 323 323 325 93 82 68 357 325 34 62 117 103 308 339 311 266 264 287 327 36 333 220 277 323 317 14 344 297 275 269 259 249 42 343 300 320 273 210 227 248
301 310 306 313 314 313 314 324 321 325 131 99 55 254 187 289 310 147 174 166 251 270 245 212 277 222 223 257 328 258 296 318 330 316 337 115 252 265 280 293 299 285 278 262 233 242 232
300 299 304 305 308 308 309 309 315 316 126 106 146 183 307 227 221 162 210 224 211 242 172 233 223 247 228 192 205 240 173 173 227 324 12 351 269 304 282 272 271 290 280 268 253 249 253
284 293 292 299 300 316 313 314 303 296 119 225 114 357 119 199 191 195 193 217 219 236 228 228 235 171 254 237 240 234 230 220 213 180 232 223 218 33 269 4 330 293 263 234 247 231 240
283 285 287 296 305 304 308 303 297 276 208 172 153 182 223 263 224 220 219 215 235 239 239 245 201 215 250 133 69 338 272 252 239 231 201 212 160 174 263 60 231 255 319 294 265 253 240
280 282 290 292 294 293 300 300 295 292 287 179 153 183 237 270 240 240 238 242 248 251 251 241 252 234 155 21 269 317 328 359 273 237 222 217 197 262 222 205 280 286 289 331 320 290 293
276 274 279 286 288 295 290 292 291 280 276 264 199 194 209 260 248 244 252 243 238 244 258 233 258 150 150 188 170 203 225 203 291 319 259 196 206 204 156 230 238 315 305 268 276 268 5
267 276 284 283 286 288 296 293 291 292 291 281 240 198 227 248 258 218 236 242 185 189 216 322 246 120 188 192 198 175 240 196 224 178 246 168 192 216 241 244 277 8 329 308 262 331 330
266 271 278 278 289 295 293 300 310 306 303 301 265 197 227 254 263 214 219 221 159 184 237 232 117 250 129 183 165 205 176 215 168 211 195 180 182 218 247 231 247 9 340 342 333 304 325
265 270 272 281 288 290 305 314 314 314 313 312 277 264 261 247 269 219 210 209 214 222 206 185 213 177 178 155 219 118 238 340 164 241 179 264 183 206 185 274 292 157 303 298 294 328 318